KE5KZS Weather Reports


Display with metric or nautical units.
time (UTC)temp
F
wind
direction
speed
MPH
gust
MPH
rain 1hr
in
rain 24hr
in
rain mn
in
humidity
%
barometer
mb
20260508065016 62 135 1.0 2.0 0.00 0.00 0.00 80 1013.9
20260508064016 62 0.0 1.0 0.00 0.00 0.00 79 1014.0
20260508063016 62 0.0 0.0 0.00 0.00 0.00 77 1014.4
20260508062016 62 0.0 0.0 0.00 0.00 0.00 77 1014.6
20260508061016 63 0.0 0.0 0.00 0.00 0.00 77 1014.5
20260508060516 63 0.0 1.0 0.00 0.00 0.00 77 1014.5
20260508055516 63 0.0 1.0 0.00 0.00 0.00 74 1014.8
20260508054516 62 135 1.0 2.0 0.00 0.00 0.00 74 1014.5
20260508053536 62 135 1.0 3.0 0.00 0.00 0.00 75 1014.4
20260508052536 62 0.0 1.0 0.00 0.00 0.00 75 1014.3
20260508051516 62 135 1.0 3.0 0.00 0.00 0.00 76 1014.4
20260508050516 62 0.0 0.0 0.00 0.00 0.00 78 1014.4
20260508045516 62 0.0 0.0 0.00 0.00 0.00 77 1014.4
20260508044517 62 0.0 0.0 0.00 0.00 0.00 77 1014.6
20260508043516 62 0.0 0.0 0.00 0.00 0.00 77 1014.6
20260508042516 62 0.0 0.0 0.00 0.00 0.00 76 1014.4
20260508041517 63 0.0 0.0 0.00 0.00 0.00 76 1014.4
20260508040536 63 0.0 0.0 0.00 0.00 0.00 73 1014.4
20260508035537 63 0.0 0.0 0.00 0.00 0.00 72 1014.4
20260508034537 64 0.0 0.0 0.00 0.00 0.00 71 1014.3
20260508033516 64 0.0 1.0 0.00 0.00 0.00 69 1014.2
20260508032537 64 0.0 2.0 0.00 0.00 0.00 69 1014.1
20260508031516 65 135 1.0 2.0 0.00 0.00 0.00 68 1014.0
20260508030516 65 135 1.0 3.0 0.00 0.00 0.00 68 1014.0
20260508025516 65 158 1.0 4.0 0.00 0.00 0.00 68 1013.9
20260508024601 65 158 2.0 5.0 0.00 0.00 0.00 67 1014.0
20260508023516 66 158 2.0 5.0 0.00 0.00 0.00 67 1013.8
20260508022516 66 158 2.0 5.0 0.00 0.00 0.00 67 1013.5
20260508021517 66 158 3.0 6.0 0.00 0.00 0.00 66 1013.6
20260508020537 66 158 2.0 5.0 0.00 0.00 0.00 66 1013.4
20260508015517 67 158 2.0 5.0 0.00 0.00 0.00 66 1013.2
20260508014537 67 158 2.0 5.0 0.00 0.00 0.00 66 1013.2
20260508013517 68 158 1.0 3.0 0.00 0.00 0.00 65 1013.2
20260508013041 68 158 2.0 3.0 0.00 0.00 0.00 64 1013.2
20260508012517 68 158 2.0 6.0 0.00 0.00 0.00 64 1013.1
20260508011517 68 203 2.0 6.0 0.00 0.00 0.00 63 1013.3
20260508010517 69 158 3.0 7.0 0.00 0.00 0.00 63 1013.3
20260508005517 69 180 2.0 6.0 0.00 0.00 0.00 62 1013.4
20260508004516 70 158 3.0 7.0 0.00 0.00 0.00 61 1013.2
20260508003516 70 158 3.0 10.0 0.00 0.00 0.00 60 1013.1
20260508002516 71 180 2.0 6.0 0.00 0.00 0.00 60 1013.0
20260508001536 72 45 1.0 2.0 0.00 0.00 0.00 60 1013.3
20260508000516 72 45 1.0 2.0 0.00 0.00 0.00 56 1013.4
20260507235536 72 45 1.0 2.0 0.00 0.00 0.00 57 1013.6
20260507234517 72 45 2.0 3.0 0.00 0.00 0.00 56 1013.6
20260507233516 72 45 1.0 3.0 0.00 0.00 0.00 56 1013.5
20260507232516 72 45 1.0 3.0 0.00 0.00 0.00 56 1013.4
20260507231516 72 45 2.0 4.0 0.00 0.00 0.00 55 1013.4
20260507230536 73 45 2.0 4.0 0.00 0.00 0.00 57 1013.5
20260507225537 73 45 1.0 3.0 0.00 0.00 0.00 57 1013.7
20260507224516 73 45 2.0 4.0 0.00 0.00 0.00 54 1013.7
20260507223516 73 45 1.0 3.0 0.00 0.00 0.00 54 1013.7
20260507222516 73 45 2.0 3.0 0.00 0.00 0.00 52 1013.9
20260507221517 73 45 2.0 4.0 0.00 0.00 0.00 52 1013.9
20260507220517 74 45 2.0 3.0 0.00 0.00 0.00 54 1013.9
20260507215516 74 45 2.0 4.0 0.00 0.00 0.00 52 1014.0
20260507214536 74 23 1.0 3.0 0.00 0.00 0.00 53 1014.3
20260507213516 74 0 2.0 4.0 0.00 0.00 0.00 51 1014.4
20260507212537 75 68 1.0 5.0 0.00 0.00 0.00 49 1014.4
20260507211537 75 68 1.0 4.0 0.00 0.00 0.00 48 1014.6
20260507210536 75 68 1.0 3.0 0.00 0.00 0.00 51 1014.8
20260507205516 75 45 2.0 6.0 0.00 0.00 0.00 48 1014.8
20260507204516 75 45 2.0 4.0 0.00 0.00 0.00 49 1014.7
20260507203537 74 45 3.0 6.0 0.00 0.00 0.00 50 1014.6
20260507202517 75 68 1.0 6.0 0.00 0.00 0.00 50 1014.8
20260507201517 76 45 3.0 8.0 0.00 0.00 0.00 48 1015.2
20260507200516 75 45 2.0 5.0 0.00 0.00 0.00 49 1015.0
20260507195516 75 23 3.0 7.0 0.00 0.00 0.00 48 1015.5
20260507194517 74 23 4.0 9.0 0.00 0.00 0.00 49 1015.4
20260507193517 75 68 2.0 4.0 0.00 0.00 0.00 53 1015.7
20260507192517 74 135 3.0 9.0 0.00 0.00 0.00 53 1015.8
20260507191516 73 45 3.0 6.0 0.00 0.00 0.00 52 1015.7
20260507190537 73 23 2.0 5.0 0.00 0.00 0.00 51 1015.9
20260507185516 72 45 3.0 6.0 0.00 0.00 0.00 53 1016.1
20260507184516 72 45 4.0 12.0 0.00 0.00 0.00 55 1016.1
20260507183517 72 45 4.0 9.0 0.00 0.00 0.00 54 1016.2
20260507182516 71 23 4.0 9.0 0.00 0.00 0.00 55 1016.3
20260507181517 71 68 4.0 11.0 0.00 0.00 0.00 53 1016.4
20260507180517 70 45 3.0 9.0 0.00 0.00 0.00 55 1016.7
20260507175516 70 45 5.0 11.0 0.00 0.00 0.00 54 1016.9
20260507174536 70 45 5.0 12.0 0.00 0.00 0.00 54 1017.1
20260507173516 70 23 3.0 9.0 0.00 0.00 0.00 56 1017.4
20260507172516 69 45 2.0 6.0 0.00 0.00 0.00 58 1017.5
20260507171516 69 45 2.0 8.0 0.00 0.00 0.00 58 1018.0
20260507170537 68 68 3.0 8.0 0.00 0.00 0.00 60 1018.2
20260507165536 68 45 2.0 4.0 0.00 0.00 0.00 60 1018.4
20260507164516 67 45 3.0 5.0 0.00 0.00 0.00 58 1018.6
20260507163536 67 45 3.0 7.0 0.00 0.00 0.00 61 1018.5
20260507162516 67 23 2.0 8.0 0.00 0.00 0.00 60 1018.7
20260507161517 67 45 4.0 11.0 0.00 0.00 0.00 61 1018.7
20260507160516 66 45 3.0 8.0 0.00 0.00 0.00 62 1018.6
20260507155516 66 45 2.0 6.0 0.00 0.00 0.00 65 1018.6
20260507154536 65 45 3.0 5.0 0.00 0.00 0.00 65 1018.8
20260507153517 65 45 3.0 9.0 0.00 0.00 0.00 64 1018.8
20260507152516 64 45 2.0 5.0 0.00 0.01 0.00 67 1018.9
20260507151516 64 68 2.0 6.0 0.00 0.03 0.00 71 1019.1
20260507150516 62 68 2.0 5.0 0.00 0.04 0.00 72 1019.1
20260507145536 62 45 2.0 4.0 0.00 0.04 0.00 74 1019.2
20260507144516 61 45 2.0 5.0 0.00 0.04 0.00 73 1019.2
20260507143516 61 45 2.0 4.0 0.00 0.04 0.00 74 1019.3
20260507142517 61 45 2.0 4.0 0.00 0.04 0.00 77 1019.3
20260507141516 60 23 3.0 6.0 0.00 0.04 0.00 79 1019.3
20260507140536 58 45 2.0 5.0 0.00 0.04 0.00 82 1019.4
20260507135516 57 45 1.0 3.0 0.00 0.04 0.00 84 1019.4
20260507134500 56 45 1.0 4.0 0.00 0.04 0.00 89 1019.5
20260507133516 54 45 2.0 4.0 0.00 0.04 0.00 89 1019.5
20260507132517 54 45 1.0 2.0 0.00 0.04 0.00 90 1019.7
20260507131516 53 45 1.0 2.0 0.00 0.04 0.00 91 1019.6
20260507130516 0 0.0 0.0 0.00 0.04 0.00
20260507125516 52 0.0 0.0 0.00 0.04 0.00 91 1019.3
20260507125028 52 45 1.0 2.0 0.00 0.04 0.00 91 1019.3
20260507124516 52 0.0 2.0 0.00 0.04 0.00 92 1019.3
20260507123517 51 0.0 1.0 0.00 0.04 0.00 92 1019.0
20260507122517 50 0.0 0.0 0.00 0.04 0.00 92 1019.0
20260507121516 50 0.0 0.0 0.00 0.04 0.00 91 1019.0
20260507120517 50 0.0 0.0 0.00 0.04 0.00 91 1018.7
20260507115516 50 0.0 0.0 0.00 0.04 0.00 91 1018.5
20260507114537 50 0.0 0.0 0.00 0.04 0.00 91 1018.5
20260507113516 50 0.0 0.0 0.00 0.04 0.00 91 1018.4
20260507112516 50 0.0 0.0 0.00 0.04 0.00 90 1018.3
20260507111516 50 0.0 3.0 0.00 0.04 0.00 90 1018.5
20260507110516 50 0.0 1.0 0.00 0.04 0.00 90 1018.6
20260507105516 50 0.0 1.0 0.00 0.04 0.00 90 1018.6
20260507104517 50 0.0 2.0 0.00 0.04 0.00 90 1018.3
20260507103516 50 0.0 1.0 0.00 0.04 0.00 90 1018.3
20260507102516 50 0.0 0.0 0.00 0.04 0.00 89 1017.9
20260507101536 51 0.0 0.0 0.00 0.04 0.00 89 1017.6
20260507100516 51 0.0 1.0 0.00 0.04 0.00 89 1017.5
20260507095537 51 0.0 0.0 0.00 0.04 0.00 89 1017.4
20260507094516 51 0.0 0.0 0.00 0.04 0.00 88 1017.1
20260507093516 51 0.0 0.0 0.00 0.04 0.00 88 1017.0
20260507092516 52 0.0 0.0 0.00 0.04 0.00 87 1016.7
20260507091557 52 0.0 2.0 0.00 0.04 0.00 87 1016.7
20260507090516 52 45 1.0 2.0 0.00 0.04 0.00 87 1016.4
20260507085516 52 0.0 0.0 0.00 0.04 0.00 86 1016.7
20260507084536 53 0.0 0.0 0.00 0.04 0.00 86 1016.9
20260507083517 53 0.0 0.0 0.00 0.04 0.00 85 1016.9
20260507082517 53 0.0 2.0 0.00 0.04 0.00 85 1016.9
20260507081516 54 0.0 2.0 0.00 0.04 0.00 85 1016.9
20260507080536 54 0.0 1.0 0.00 0.04 0.00 84 1016.8
20260507075516 54 45 1.0 3.0 0.00 0.04 0.00 85 1016.6
20260507074516 54 45 2.0 4.0 0.00 0.04 0.00 85 1016.4
20260507073516 54 45 1.0 4.0 0.00 0.04 0.00 85 1016.4
20260507072516 54 45 1.0 3.0 0.00 0.04 0.00 85 1016.3
20260507071516 54 45 2.0 3.0 0.00 0.04 0.00 85 1016.3
20260507070516 54 45 1.0 3.0 0.00 0.04 0.00 85 1016.2
20260507065516 54 45 1.0 4.0 0.00 0.04 0.00 84 1016.3